Regional Weather Roundup
Issued by NWS

Home | Current Version | Previous Version | Graphics & Text | Print | Product List | Glossary On
Versions: 1 2 3 4 5 6 7 8 9 10 11 12 13 14 15 16 17 18 19 20 21 22 23 24 25 26 27 28 29 30 31 32 33 34 35 36 37 38 39 40 41 42 43 44 45 46 47 48 49 50
000
ASUS43 KLOT 020206
RWRIL

ILLINOIS REGIONAL WEATHER ROUNDUP
NATIONAL WEATHER SERVICE CHICAGO/ROMEOVILLE IL
900 PM CDT MON SEP 01 2014

NOTE: "FAIR" INDICATES FEW OR NO CLOUDS BELOW 12,000 FEET WITH NO
SIGNIFICANT WEATHER AND/OR OBSTRUCTIONS TO VISIBILITY.

* THESE STATIONS ARE NOT UNDER NWS QUALITY CONTROL. THEY ALSO MAY NOT
  REPORT WEATHER SUCH AS PRECIPITATION OR FOG.

ILZ001-002-007-009-015-016-024-020300-
NORTHWEST ILLINOIS

CITY           SKY/WX    TMP DP  RH WIND       PRES   REMARKS
MOLINE         PTCLDY    72  66  81 W5        29.84R
STERLING*      MOCLDY    72  66  83 CALM      29.84R
SAVANNA*       CLEAR     73  65  77 CALM      29.83R
$$

ILZ003-004-008-010-011-017-018-020300-
NORTH CENTRAL ILLINOIS

CITY           SKY/WX    TMP DP  RH WIND       PRES   REMARKS
ROCKFORD       PTCLDY    68  65  90 CALM      29.84R
FREEPORT*      CLEAR     66  64  94 CALM      29.85R
ROCHELLE*      CLOUDY    72  65  80 W5        29.85R
DE KALB*       CLOUDY    69  65  87 W7        29.85R
PERU*          CLEAR     73  67  79 SW7       29.85R
$$

ILZ005-006-012>014-019>023-020300-
NORTHEAST ILLINOIS

CITY           SKY/WX    TMP DP  RH WIND       PRES   REMARKS
CHICAGO-OHARE  MOCLDY    77  63  61 SW10      29.82R
CHICAGO-MIDWAY PTCLDY    77  67  71 SW9       29.83R
AURORA         CLEAR     73  65  75 SW10      29.84R
LANSING*         N/A    N/A N/A N/A MISG        N/A
JOLIET*        CLEAR     73  64  75 SW3       29.86R
WAUKEGAN       MOCLDY    70  65  84 SW5       29.80R
DUPAGE AIRPORT CLEAR     74  65  73 SW10      29.83R
KANKAKEE*      CLEAR     70  66  88 SW6       29.87R
WHEELING       LGT RAIN  72  67  84 W6        29.84R
MORRIS*        CLEAR     71  67  88 SW3       29.84R
ROMEOVILLE*    MOCLDY    74  64  71 SW8       29.85R
NORTHERLY ISL    N/A     78  64  61 SW10        N/A  HX  80
$$

LMZ740>746-020300-
SOUTHERN LAKE MICHIGAN

STATION/POSITION SKY/WX   TEMP    WIND        PRES    VSBY  WAVE
                          AIR SEA DIR/SP/G                  HT/PER
                          (F)     (DEG/KT/KT) (MB)    (MI)  (FT/S)
SOUTHERN BUOY              71 70  280/ 12/ 14 1008.8R         2/ 4
WAUKEGAN HARBOR            71     260/ 11/ 17   N/A
HARRISON CRIB              77     230/ 16/ 20   N/A
BURNHAM HARBOR             78     250/  7/ 14   N/A
CALUMET HARBOR             76     210/  6/  9 1009.1R
MICHIGAN CITY              75     190/ 12/ 14   N/A
MICHIGAN CITY 6N           75 72  220/ 12/ 16   N/A           2/ 3
ST. JOSEPH                 74 72  210/ 14/ 16   N/A           3/ 4
$$

ILZ025>027-034>036-040-047-049-050-058-095>099-020300-
WEST-CENTRAL ILLINOIS

CITY           SKY/WX    TMP DP  RH WIND       PRES   REMARKS
QUINCY         CLOUDY    75  69  81 S5        29.88R
GALESBURG*     MOCLDY    71  68  90 S3        29.85S
MACOMB*        CLOUDY    70  68  92 SW5       29.88R
JACKSONVILLE*  CLOUDY    77  69  76 S6        29.88R
PITTSFIELD*    TSTM      73  68  87 S10G20    29.90R
$$

ILZ028>032-037-038-041>044-048-051>054-059>061-020300-
CENTRAL ILLINOIS

CITY           SKY/WX    TMP DP  RH WIND       PRES   REMARKS
PONTIAC        CLEAR     73  68  83 SW5       29.86R
DECATUR        MOCLDY    75  67  76 S7        29.89R
PEORIA         PTCLDY    74  66  76 SW5       29.86R
LACON*         CLEAR     72  66  82 S3        29.84S
LINCOLN*       MOCLDY    75  67  75 CALM      29.85R
SPRINGFIELD    CLOUDY    76  67  73 SW5       29.88R
TAYLORVILLE    DRIZZLE   72  68  88 S6        29.89R
$$

ILZ033-039-045-046-055>057-062-063-020300-
EAST-CENTRAL ILLINOIS

CITY           SKY/WX    TMP DP  RH WIND       PRES   REMARKS
CHAMPAIGN      CLEAR     70  66  87 S7        29.90R
DANVILLE*      CLEAR     70  66  88 SW6       29.87R
RANTOUL*       PTCLDY    73  65  78 SW6       29.89S
MATTOON        CLEAR     74  67  78 S7        29.90S
PARIS*         CLEAR     72  67  86 S6        29.92R
$$

ILZ079-100>102-020300-
SOUTHWEST ILLINOIS

CITY           SKY/WX    TMP DP  RH WIND       PRES   REMARKS
ALTON          CLOUDY    72  70  94 NW6       29.89F
BELLEVILLE     CLOUDY    78  71  79 E5        29.88F HX  80
CAHOKIA*       CLOUDY    79  69  71 SE9       29.86F HX  81
SPARTA*        CLOUDY    76  70  81 SE3       29.92R
$$

ILZ064>066-069>071-074>076-080>082-084>086-088>090-092>094-020300-
SOUTH-CENTRAL ILLINOIS

CITY           SKY/WX    TMP DP  RH WIND       PRES   REMARKS
CARBONDALE     LGT RAIN  77  72  84 SE6       29.92S
CAIRO*         PTCLDY    81  73  78 S5        29.93S HX  85
EFFINGHAM*     CLOUDY    75  65  70 S5        29.91S
MARION         MOCLDY    79  73  83 SE7       29.93S HX  82
MT. VERNON     CLOUDY    77  66  69 CALM      29.93S
CENTRALIA*     CLOUDY    75  68  78 S7        29.92S
SALEM*         CLOUDY    78  71  79 S7        29.92S HX  80
METROPOLIS*    CLEAR     79  73  81 S3        29.94S HX  83
$$

ILZ067-068-072-073-078-083-087-091-020300-
SOUTHEAST ILLINOIS

CITY           SKY/WX    TMP DP  RH WIND       PRES   REMARKS
LAWRENCEVILLE  MOCLDY    74  71  91 S6        29.93R
FLORA*         CLEAR     73  67  83 S6        29.93R
FAIRFIELD*     CLOUDY    77  73  88 S5        29.93S
HARRISBURG*    MOCLDY    76  74  96 CALM      29.95S
ROBINSON*      PTCLDY    73  71  96 S3        29.93R
CARMI*         CLOUDY    76  74  93 SE5       29.94S
$$

ABBREVIATIONS USED IN REMARKS
   TC - TEMPERATURE IN CELSIUS
  WCI - WIND CHILL INDEX
   HX - HEAT INDEX
  VSB - VISIBILITY
$$



USA.gov is the U.S. government's official web portal to all federal, state and local government web resources and services.